{"data":{"norad_id":55640,"epoch":"2026-05-25T00:06:48.505248Z","epoch_age_seconds":64750,"freshness":"FRESH","line1":"1 55640U 23021N   26145.00472807 -.00000732  00000+0 -53603-4 0  9998","line2":"2 55640  69.9995 351.9981 0002260 263.6551  96.4351 14.98335464180221","mean_motion":14.98335464,"eccentricity":0.000226,"inclination_deg":69.9995,"raan_deg":351.9981,"arg_perigee_deg":263.6551,"mean_anomaly_deg":96.4351,"bstar":-5.3603e-5,"rev_number":18022,"period_min":96.106648651013,"perigee_km":570.46825425184,"apogee_km":573.60973380114,"semimajor_km":6950.1759940265,"source":"CELESTRAK","updated_at":"2026-05-25T13:38:17.849228Z"}}